Hourly Data Report for September 04, 2001

SHERBROOKE A
QUEBEC

45°26'00.000" N
71°41'00.000" W
241.40 m
7028124
71610
YSC

Download Data

Hourly Data (September 2001)
Hourly Data Report for September 4, 2001
TIME
LST
Temp Definition
°C
Dew Point Definition
°C
Rel Hum Definition
%
Precip. Amount Definition
mm

Wind Dir Definition
10's deg

Wind Spd Definition
km/h
Visibility Definition
km
Stn Press Definition
kPa
Hmdx Definition


Wind Chill Definition


Weather Definition


00:00 15.8 11.6 76   18 6 15.0 98.31      
01:00 15.0 11.7 81   16 9 15.0 98.27      
02:00 15.0 11.8 81   17 4 15.0 98.23      
03:00 15.3 12.0 81   19 6 15.0 98.21      
04:00 13.1 11.2 88   16 7 15.0 98.19      
05:00 11.8 10.6 92     0 15.0 98.17      
06:00 12.7 11.9 95   12 4 15.0 98.21      
07:00 15.9 14.4 91     0 24.1 98.22     Mostly Cloudy
08:00 15.3 14.4 94     0 19.3 98.22     Rain
09:00 16.3 14.9 91   16 6 24.1 98.21     Cloudy
10:00 17.8 15.7 88     0 19.3 98.21     Mostly Cloudy
11:00 19.3 16.3 83     0 24.1 98.17     Cloudy
12:00 17.7 15.3 86   22 9 19.3 98.18     Rain Showers
13:00 17.4 15.9 91   24 6 16.1 98.18     Cloudy
14:00 17.5 16.2 92   25 9 9.7 98.19     Fog
15:00 19.1 16.5 85   26 7 9.7 98.14     Haze
16:00 20.1 16.2 78   27 9 16.1 98.14 25   Mostly Cloudy
17:00 18.4 15.5 83   30 7 11.3 98.22      
18:00 16.3 13.6 84   34 6 15.0 98.33      
19:00 15.3 13.4 88   35 4 15.0 98.38     Rain
20:00 15.3 13.5 89   32 11 15.0 98.46      
21:00 14.9 12.3 84   34 9 15.0 98.52      
22:00 13.9 11.9 88   30 9 15.0 98.58      
23:00 12.4 10.9 91   26 4 15.0 98.64      

Notes on Data Quality.

Legend

  • E = Estimated
  • M = Missing
  • NA = Not Available*
  • [empty] = Indicates an unobserved value
Date modified: